Regional Weather Roundup
Issued by NWS

Home | Current Version | Previous Version | Graphics & Text | Print | Product List | Glossary On
Versions: 1 2 3 4 5 6 7 8 9 10 11 12 13 14 15 16 17 18 19 20 21 22 23 24 25 26 27 28 29 30 31 32 33 34 35 36 37 38 39 40 41 42 43 44 45 46 47 48 49 50
981
ASUS43 KDMX 100203
RWRIA

WEATHER ROUNDUP FOR IOWA
NATIONAL WEATHER SERVICE DES MOINES IA
800 PM CST TUE FEB 09 2016

NOTE: "FAIR" INDICATES FEW OR NO CLOUDS BELOW 12,000 FEET WITH NO
SIGNIFICANT WEATHER AND/OR OBSTRUCTIONS TO VISIBILITY.

* - THESE STATIONS ARE NOT NWS STATIONS...THUS NOT UNDER NWS
QUALITY CONTROL.  THEY ALSO DO NOT REPORT WEATHER SUCH
AS PRECIPITATION OR FOG.

IAZ001>003-012>014-020>022-031>034-043>046-100300-
   NORTHWEST IOWA

CITY           SKY/WX    TMP DP  RH WIND       PRES   REMARKS
CARROLL *      CLOUDY    18  10  73 NW15      30.19S WCI   3
CHEROKEE *     CLOUDY    19  12  73 NW7       30.20S WCI  10
DENISON *      CLOUDY    18  10  73 NW12      30.19F WCI   5
LE MARS *      CLOUDY    21  16  79 NW3       30.23F
ORANGE CITY *  PTCLDY    18  12  79 CALM      30.20F
SHELDON *      CLOUDY    19  12  73 NW9       30.17F WCI   9
SIOUX CITY     CLOUDY    23  14  68 NW6       30.24F WCI  16
SPENCER        CLOUDY    18  10  71 NW13      30.18S WCI   5
STORM LAKE *   CLOUDY    19  12  73 NW15      30.18S WCI   5
$$

IAZ055>058-069>071-079>083-090>094-100300-
   SOUTHWEST IOWA

CITY           SKY/WX    TMP DP  RH WIND       PRES   REMARKS
ATLANTIC *     CLOUDY    19  10  68 NW14      30.22F WCI   6
AUDUBON *      CLOUDY    19  10  68 NW9G16    30.19F WCI   9
CLARINDA *     PTCLDY    19  12  73 W13       30.26F WCI   7
COUNCIL BLFS * CLOUDY    21  14  73 NW7       30.24F WCI  13
CRESTON *      CLEAR     18  10  73 NW16      30.19F WCI   3
HARLAN  *      CLOUDY    16  10  79 W12       30.25F WCI   3
LAMONI         CLEAR     18   9  68 NW16      30.18S WCI   3
RED OAK *      PTCLDY    19  14  79 NW8       30.25S WCI   9
SHENANDOAH *   CLOUDY    23  16  74 W8        30.27S WCI  14
$$

IAZ047>049-059>061-072>074-084-100300-
   CENTRAL IOWA

CITY           SKY/WX    TMP DP  RH WIND       PRES   REMARKS
AMES           CLEAR     14   6  70 NW15      30.18R WCI  -1
ANKENY *       CLEAR     16   7  67 NW15G22   30.18S WCI   1
BOONE *        CLEAR     14   5  67 NW12      30.16S WCI   0
CHARITON *     PTCLDY    16   7  67 NW20      30.17R WCI  -1
DES MOINES     CLEAR     17   7  64 N13       30.18S WCI   4
GRINNELL*      CLEAR     12   9  85 NW14      30.13S WCI  -3
KNOXVILLE *    PTCLDY    16   7  67 NW15      30.15S WCI   1
MARSHALLTOWN   CLEAR     11   4  73 NW18      30.13S WCI  -7
NEWTON *       FLURRIES  16   7  67 NW18      30.15R WCI  -1
PELLA *        CLEAR     15   7  73 NW10      30.17S WCI   2
$$

IAZ004>006-015-016-023>025-035-036-100300-
   NORTH CENTRAL IOWA

CITY           SKY/WX    TMP DP  RH WIND       PRES   REMARKS
ALGONA *       CLEAR     12   7  79 NW10      30.15S WCI  -1
CLARION *      CLEAR     12   5  73 NW24      30.14S WCI  -8
ESTHERVILLE    CLOUDY    14   8  77 NW15      30.15F WCI  -1
FORT DODGE *   CLEAR     12   3  67 CALM      30.18S
MASON CITY     CLEAR      9   1  70 NW16      30.13S WCI  -8
FOREST CITY *  CLEAR     10   5  79 NW12      30.12S WCI  -4
WEBSTER CITY * CLEAR     12   5  73 NW22      30.14S WCI  -7
IOWA FALLS *     N/A     12   7  79 NW20      30.14R WCI  -6
$$

IAZ007>011-017>019-026>030-037>042-050>054-066-100300-
   NORTHEAST IOWA

CITY           SKY/WX    TMP DP  RH WIND       PRES   REMARKS
CEDAR RAPIDS   CLEAR     11   5  77 NW16      30.09R WCI  -6
CHARLES CITY * CLEAR      9   1  72 NW17      30.11R WCI -10
CLINTON *      CLEAR     11   5  77 NW13      30.05S WCI  -4
DECORAH *      CLEAR     10  -2  56 NW14      30.04S WCI  -5
DUBUQUE        CLEAR     11   2  67 NW13      30.02R WCI  -4
MONTICELLO *   CLEAR     12   1  62 NW16      30.07R WCI  -4
OELWEIN *      CLEAR      9   0  66 NW18      30.08S WCI -10
WATERLOO       CLEAR     10   1  67 NW16      30.11S WCI  -7
$$

IAZ064-065-067-068-078-100300-
   EAST CENTRAL IOWA

CITY           SKY/WX    TMP DP  RH WIND       PRES   REMARKS
DAVENPORT      CLEAR     12   3  67 NW16      30.07R WCI  -5
IOWA CITY      CLEAR     13   4  67 NW12      30.13R WCI  -1
MT. PLEASANT * CLEAR     16   7  68 NW13G20   30.13S WCI   2
MUSCATINE *    CLEAR     14   5  67 NW13G18   30.12S WCI   0
QUAD CITIES    CLEAR     13   3  64 NW12G25   30.08R WCI  -1
$$

IAZ062-063-075>077-085>089-095>099-100300-
   SOUTHEAST IOWA

CITY           SKY/WX    TMP DP  RH WIND       PRES   REMARKS
BURLINGTON     CLEAR     13   5  70 NW13G22   30.11R WCI  -2
FAIRFIELD *    MOCLDY    14   5  67 NW17      30.14R WCI  -3
FORT MADISON * MOCLDY    12   7  79 NW17G25   30.12S WCI  -5
KEOKUK *       PTCLDY    16   7  67 NW14G28   30.13R WCI   1
OSKALOOSA *      N/A     14   9  79 NW15G21   30.15S WCI  -1
OTTUMWA        CLOUDY    15   7  70 NW16      30.15S WCI  -1
WASHINGTON *   PTCLDY    12   5  73 NW16G24   30.14S WCI  -4
$$

ABBREVIATIONS USED IN REMARKS
   TC - TEMPERATURES IN CELSIUS
  WCI - WIND CHILL INDEX
   HX - HEAT INDEX
  VSB - VISIBILITY
$$





USA.gov is the U.S. government's official web portal to all federal, state and local government web resources and services.